Weather History for KFNB - November, 2012

Change the Weather History Date:

Friday, November 9, 2012

  Actual Average Record
Temperature  
Mean Temperature 60 °F -  
Max Temperature 73 °F 54 °F 78 °F (1999)
Min Temperature 46 °F 33 °F 4 °F (1991)
Degree Days  
Heating Degree Days 6    
Growing Degree Days 10 (Base 50)    
Moisture  
Dew Point 49 °F    
Average Humidity 68    
Maximum Humidity 83    
Minimum Humidity 48    
Precipitation  
Precipitation 0.00 in - - ()
Sea Level Pressure  
Sea Level Pressure 29.76 in    
Wind  
Wind Speed 9 mph (SSE)    
Max Wind Speed 17 mph    
Max Gust Speed 23 mph    
Visibility 10 miles    
Events      
Averages and records for this station are not official NWS values.
T = Trace of Precipitation, MM = Missing Value Source: NWS Daily Summary

Daily Weather History Graph

Daily Weather History Graph

Search for Another Location

Airport or City:

Trip Planner

Search our weather history database for the weather conditions in past years. The results will help you decide how hot, cold, wet, or windy it might be!

Date:

Astronomy

Nov. 09, 2012 Rise Set
Actual Time 7:01 AM CST 5:10 PM CST
Civil Twilight 6:32 AM CST 5:39 PM CST
Nautical Twilight 6:00 AM CST 6:11 PM CST
Astronomical Twilight 5:28 AM CST 6:43 PM CST
Moon 2:01 AM CST (11/9) 2:24 PM CST (11/9)
Length of Visible Light 11h 06m
Length of Day
10h 09m
Waning Crescent, 23% of the Moon is Illuminated
Nov 9
Waning Crescent
Nov 13
New
Nov 20
First Quarter
Nov 28
Full
Dec 6
Last Quarter

Hourly Weather History & Observations

Time (CST) Temp. Dew Point Humidity Pressure Visibility Wind Dir Wind Speed Gust Speed Precip Events Conditions
12:53 AM 51.1 °F 42.1 °F 71% 29.84 in 10.0 mi SSE 9.2 mph - N/A   Clear
1:53 AM 48.9 °F 41.0 °F 74% 29.83 in 10.0 mi SE 8.1 mph - N/A   Clear
2:53 AM 48.9 °F 41.0 °F 74% 29.83 in 10.0 mi ESE 5.8 mph - N/A   Clear
3:53 AM 48.9 °F 41.0 °F 74% 29.83 in 10.0 mi SE 5.8 mph - N/A   Clear
4:53 AM 48.9 °F 42.1 °F 77% 29.82 in 10.0 mi SE 9.2 mph - N/A   Clear
5:53 AM 46.9 °F 41.0 °F 80% 29.83 in 10.0 mi SE 3.5 mph - N/A   Clear
6:53 AM 46.9 °F 41.0 °F 80% 29.83 in 10.0 mi SSE 8.1 mph - N/A   Clear
7:53 AM 48.9 °F 42.1 °F 77% 29.84 in 10.0 mi SE 5.8 mph - N/A   Clear
8:53 AM 55.0 °F 45.0 °F 69% 29.83 in 10.0 mi SSE 9.2 mph - N/A   Clear
9:53 AM 59.0 °F 46.9 °F 64% 29.82 in 10.0 mi SSE 10.4 mph - N/A   Clear
10:53 AM 62.1 °F 48.0 °F 60% 29.81 in 10.0 mi SSE 9.2 mph - N/A   Clear
11:53 AM 66.9 °F 51.1 °F 57% 29.78 in 10.0 mi South 10.4 mph - N/A   Clear
12:53 PM 71.1 °F 52.0 °F 51% 29.74 in 10.0 mi SSE 11.5 mph - N/A   Clear
1:53 PM 73.0 °F 52.0 °F 48% 29.72 in 10.0 mi South 13.8 mph - N/A   Clear
2:53 PM 73.9 °F 53.1 °F 48% 29.70 in 10.0 mi SSE 13.8 mph - N/A   Clear
3:53 PM 73.9 °F 55.0 °F 52% 29.70 in 10.0 mi SSE 17.3 mph 23.0 mph N/A   Clear
4:53 PM 70.0 °F 55.0 °F 59% 29.69 in 10.0 mi SE 10.4 mph - N/A   Clear
5:53 PM 66.9 °F 55.9 °F 68% 29.70 in 10.0 mi SE 9.2 mph - N/A   Clear
6:53 PM 63.0 °F 55.0 °F 75% 29.71 in 10.0 mi SE 6.9 mph - N/A   Clear
7:53 PM 64.0 °F 55.9 °F 75% 29.71 in 10.0 mi SE 6.9 mph - N/A   Clear
8:53 PM 60.1 °F 55.0 °F 83% 29.71 in 10.0 mi ESE 6.9 mph - N/A   Clear
9:53 PM 64.9 °F 57.0 °F 75% 29.70 in 10.0 mi SSE 11.5 mph - N/A   Clear
10:53 PM 64.9 °F 57.0 °F 75% 29.68 in 10.0 mi SSE 13.8 mph - N/A   Clear
11:53 PM 64.9 °F 57.0 °F 75% 29.68 in 10.0 mi South 13.8 mph 21.9 mph N/A   Clear